#timestamp,LO_Frequency,Hit,StdDev 
1568192415.7,286046998.6,N
1568192435.5,286047000.3,N
1568192455.3,286047000.2,N
1568192475.2,286047000.3,N
1568192495.0,286047000.7,N
1568192495.9,286047000.7,N
1568192515.8,286047001.0,N
1568192535.6,286046997.0,N
1568192555.4,286046999.1,N
1568192575.3,286046998.5,N
1568192595.1,286046998.9,N
1568192615.8,286046998.2,N
1568192635.7,286046998.8,N
1568192655.5,286046998.6,N
1568192675.4,286046998.5,N
1568192695.2,286046998.9,N
1568192715.0,286046996.6,Y
1568192715.9,286046996.6,P
1568192735.8,286047001.1,N
1568192755.6,286046999.4,N
1568192775.5,286046997.0,N
1568192795.3,286046999.4,N
1568192815.1,286046996.9,N
1568192835.9,286046997.6,N
1568192855.7,286046997.2,N
1568192875.5,286046998.7,N
1568192895.4,286046998.7,N
1568192915.2,286046998.8,N
1568192935.1,286047000.0,N
1568192936.0,286047000.0,N
1568192955.8,286046999.9,N
1568192975.6,286047000.7,N
1568192995.5,286047000.3,N
1568193015.3,286047000.0,N
1568193035.2,286046998.2,N
1568193055.9,286046998.7,N
1568193075.7,286047001.2,N
1568193095.6,286047000.0,N
1568193115.4,286047000.5,N
1568193135.2,286047000.6,N
1568193155.1,286047000.7,N
1568193156.0,286047000.7,N
1568193175.8,286047000.2,N
1568193195.7,286047000.6,N
1568193215.5,286047000.5,N
1568193235.3,286047002.7,N
1568193255.2,286047002.2,N
1568193275.0,286047002.6,N
1568193275.9,286047002.6,N
1568193295.8,286047001.5,N
1568193315.6,286047000.7,N
1568193335.4,286047000.6,N
1568193355.3,286047000.5,N
1568193375.1,286047000.7,N
1568193395.9,286047002.8,N
1568193415.7,286047002.3,N
1568193435.5,286047000.0,N
1568193455.4,286047000.5,N
1568193475.2,286047001.1,N
1568193495.0,286047000.2,N
1568193495.9,286047000.2,N
1568193515.8,286047002.8,N
1568193535.6,286047000.3,N
1568193555.5,286047002.8,N
1568193575.3,286047000.9,N
1568193595.1,286047000.9,N
1568193615.9,286047000.0,N
1568193635.7,286046999.8,N
1568193655.6,286047000.1,N
1568193675.4,286047001.5,N
1568193695.2,286047001.6,N
1568193715.1,286047003.9,Y
1568193716.0,286047003.9,P
1568193735.8,286047002.3,N
1568193755.6,286046999.8,N
1568193775.5,286047002.7,N
1568193795.3,286047002.1,N
1568193815.2,286047002.6,N
1568193835.9,286047001.0,N
1568193855.7,286047000.7,N
1568193875.6,286046998.2,N
1568193895.4,286046998.9,N
1568193915.3,286046999.2,N
1568193935.1,286046998.7,N
1568193936.0,286046998.7,N
1568193955.8,286046998.6,N
1568193975.7,286046999.4,N
1568193995.5,286046999.0,N
1568194015.3,286046998.8,N
1568194035.2,286046999.4,N
1568194055.0,286046998.9,N
1568194055.9,286046998.9,N
1568194075.8,286046999.1,N
1568194095.6,286047000.7,N
1568194115.4,286047000.5,N
1568194135.3,286047002.8,N
1568194155.1,286047000.4,N
1568194175.9,286046999.7,N
1568194195.7,286046999.8,N
1568194215.5,286046999.8,N
1568194235.4,286047002.7,N
1568194255.2,286047002.3,N
1568194275.0,286047002.2,N
1568194275.9,286047002.2,N
1568194295.8,286047001.9,N
1568194315.6,286047002.3,N
1568194335.5,286047001.6,N
1568194355.3,286047004.3,N
1568194375.1,286047002.9,N
1568194395.9,286047005.6,Y
1568194415.7,286047003.6,P
1568194435.6,286047003.8,N
1568194455.4,286047001.4,N
1568194475.2,286047004.1,N
1568194495.1,286047004.0,N
1568194496.0,286047004.0,N
1568194515.8,286047003.7,N
1568194535.6,286047005.6,Y
1568194555.5,286046999.8,P
1568194575.3,286047002.8,N
1568194595.2,286047002.6,N
1568194615.9,286047000.0,N
1568194635.7,286046999.8,N
1568194655.6,286047000.4,N
1568194675.4,286047000.2,N
1568194695.3,286047000.3,N
1568194715.1,286047002.8,N
1568194716.0,286047002.8,N
1568194735.8,286047000.2,N
1568194755.7,286047002.0,N
1568194775.5,286047002.4,N
1568194795.3,286046999.9,N
1568194815.2,286047002.3,N
1568194835.0,286047002.6,N
1568194835.9,286047011.9,Y
1568194855.8,286046998.8,P
1568194875.6,286046998.5,N
1568194895.4,286046999.3,N
1568194915.3,286046998.4,N
1568194935.1,286046998.3,N
1568194955.9,286046998.6,N
1568194975.7,286046998.6,N
1568194995.5,286046998.6,N
1568195015.4,286046999.3,N
1568195035.2,286046996.7,Y
1568195055.0,286046996.7,P
1568195055.9,286046996.7,N
1568195075.8,286046996.9,N
1568195095.6,286046996.8,Y
1568195115.5,286046999.9,P
1568195135.3,286047000.6,N
1568195155.2,286047000.7,N
1568195175.9,286047001.2,N
1568195195.7,286046998.2,N
1568195215.6,286047000.8,N
1568195235.4,286046998.6,N
1568195255.2,286047001.1,N
1568195275.1,286047000.6,N
1568195276.0,286047000.6,N
1568195295.8,286047000.7,N
1568195315.7,286047000.8,N
1568195335.5,286047001.2,N
1568195355.3,286046998.1,N
1568195375.2,286046999.2,N
1568195395.0,286046999.1,N
1568195395.9,286046999.1,N
1568195415.8,286046996.9,N
1568195435.6,286046998.8,N
1568195455.4,286046999.5,N
1568195475.3,286046999.6,N
1568195495.1,286046996.5,N
1568195515.8,286046996.6,N
1568195535.7,286046996.6,N
1568195555.5,286046999.5,N
1568195575.4,286046998.6,N
1568195595.2,286046999.3,N
1568195615.0,286046996.9,N
1568195615.9,286046996.9,N
1568195635.8,286046996.5,N
1568195655.6,286046995.5,N
1568195675.5,286046996.0,N
1568195695.3,286046995.1,N
1568195715.1,286046996.0,N
1568195735.9,286046995.4,N
1568195755.7,286046997.9,N
1568195775.5,286046999.6,N
1568195795.4,286046997.1,N
1568195815.2,286046999.0,N
1568195835.1,286046998.7,N
1568195836.0,286046998.7,N
1568195855.8,286046996.5,N
1568195875.6,286046997.0,N
1568195895.5,286046997.0,N
1568195915.3,286046999.2,N
1568195935.2,286046999.1,N
1568195955.9,286046999.5,N
1568195975.7,286046998.8,N
1568195995.6,286046996.5,N
